Location: Exeidioux
(45.6312°N, 1.6819°E)
Time: 17:15:29
(UTC+00:00)

GP-B - Pass Details

Date: 03 March 2021
Orbit: 631 x 635 km, 89.8° (Epoch: 11 April)

Event Time Altitude Azimuth Distance (km) Brightness Sun altitude
Rises 19:21:18 0° 182° (S) 2,917 6.4 -17.9°
Reaches altitude 10° 19:23:31 10° 185° (S) 2,014 5.6 -18.3°
Maximum altitude 19:27:55 71° 269° (W) 676 3.3 -19.1°
Drops below altitude 10° 19:32:23 10° 354° (N) 2,031 5.9 -19.8°
Sets 19:34:38 0° 357° (N) 2,945 6.7 -20.2°
